Weather reports worldwide

Advertisment
Levens Hall, United Kingdom (99172): temperature & dewpoint: 18.05.2017 20:00:00 - 24.05.2017 20:00:00 (BST)Levens Hall, United Kingdom (99172): temperature 5cm: 18.05.2017 20:00:00 - 24.05.2017 20:00:00 (BST)Levens Hall, United Kingdom (99172): visibility: 18.05.2017 20:00:00 - 24.05.2017 20:00:00 (BST)Levens Hall, United Kingdom (99172): precipitation: 18.05.2017 20:00:00 - 24.05.2017 20:00:00 (BST)
Date & Time tt [°C] td [°C] tt 5cm [°C] vv [km] rr [mm]
24.05.2017 20:00:00 16,3 13,7 - - 0,0
24.05.2017 19:00:00 17,7 14,2 - - 0,0
24.05.2017 18:00:00 18,2 14,0 - - 0,0
24.05.2017 17:00:00 17,6 14,1 - - 0,0
24.05.2017 16:00:00 17,1 13,9 - - 0,0
24.05.2017 15:00:00 17,0 13,7 - - 0,0
24.05.2017 14:00:00 17,6 14,2 - - 0,0
24.05.2017 13:00:00 19,5 16,6 - - 0,0
24.05.2017 12:00:00 17,6 14,8 - - 0,0
24.05.2017 11:00:00 16,5 14,0 - - 0,0
24.05.2017 10:00:00 17,8 15,0 18,2 - 0,0
24.05.2017 09:00:00 16,6 14,7 - - 0,0
24.05.2017 08:00:00 16,1 13,9 - - 0,0
24.05.2017 07:00:00 15,4 14,0 - - 0,0
24.05.2017 06:00:00 13,9 13,1 - - 0,0
24.05.2017 05:00:00 13,1 12,3 - - 0,0
24.05.2017 04:00:00 13,9 12,7 - - 0,0
24.05.2017 03:00:00 14,4 12,8 - - 0,0
24.05.2017 02:00:00 14,4 12,6 - - 0,0
24.05.2017 01:00:00 14,2 12,3 - - 0,0
24.05.2017 00:00:00 14,0 11,7 - - 0,0
23.05.2017 23:00:00 14,0 11,7 - - 0,0
23.05.2017 22:00:00 14,5 11,8 - - 0,0
23.05.2017 21:00:00 14,8 11,9 - - 0,0
23.05.2017 20:00:00 15,1 10,8 - - 0,0
23.05.2017 19:00:00 16,6 8,7 - - 0,0
23.05.2017 18:00:00 17,1 9,4 - - 0,0
23.05.2017 17:00:00 17,2 9,2 - - 0,0
23.05.2017 16:00:00 17,3 9,8 - - 0,0
23.05.2017 15:00:00 17,5 11,2 - - 0,0
23.05.2017 14:00:00 16,4 10,3 - - 0,0
23.05.2017 13:00:00 16,7 9,3 - - 0,0
23.05.2017 12:00:00 15,8 11,3 - - 0,0
23.05.2017 11:00:00 16,0 9,6 - - 0,0
23.05.2017 10:00:00 15,3 9,2 15,9 - 0,0
23.05.2017 09:00:00 14,2 9,8 - - 0,0
23.05.2017 08:00:00 11,5 10,9 - - 0,0
23.05.2017 07:00:00 9,3 9,0 - - 0,0
23.05.2017 06:00:00 7,8 7,4 - - 0,0
23.05.2017 05:00:00 8,3 7,7 - - 0,0
23.05.2017 04:00:00 8,7 7,9 - - 0,0
23.05.2017 03:00:00 9,5 8,6 - - 0,0
23.05.2017 02:00:00 10,3 9,1 - - 0,0
23.05.2017 01:00:00 12,0 10,4 - - 0,0
23.05.2017 00:00:00 12,8 11,3 - - 0,0
22.05.2017 23:00:00 12,9 11,2 - - 0,0
22.05.2017 22:00:00 12,8 10,5 - - 0,0
22.05.2017 21:00:00 13,6 10,2 - - 0,0
22.05.2017 20:00:00 14,7 11,3 - - 0,0
22.05.2017 19:00:00 15,7 11,0 - - 0,0
22.05.2017 18:00:00 16,1 12,3 - - 0,0
22.05.2017 17:00:00 18,3 12,4 - - 0,0
22.05.2017 16:00:00 20,6 12,9 - - 0,0
22.05.2017 15:00:00 21,6 13,9 - - 0,0
22.05.2017 14:00:00 19,6 12,7 - - 0,0
22.05.2017 13:00:00 18,1 12,9 - - 0,2
22.05.2017 12:00:00 17,3 12,4 - - 0,0
22.05.2017 11:00:00 17,2 13,3 - - 0,0
22.05.2017 10:00:00 17,0 12,1 - 10 0,0
22.05.2017 09:00:00 15,1 11,0 - - 0,0
22.05.2017 08:00:00 13,0 9,9 - - 0,0
22.05.2017 07:00:00 11,3 10,2 - - 0,0
22.05.2017 06:00:00 8,7 7,8 - - 0,0
22.05.2017 05:00:00 8,1 6,9 - - 0,0
22.05.2017 04:00:00 9,4 7,6 - - 0,0
22.05.2017 03:00:00 7,7 6,6 - - 0,0
22.05.2017 02:00:00 8,5 6,3 - - 0,0
22.05.2017 01:00:00 11,2 7,4 - - 0,0
22.05.2017 00:00:00 11,8 7,8 - - 0,0
21.05.2017 23:00:00 11,7 7,9 - - 0,0
21.05.2017 22:00:00 12,4 7,5 - - 0,0
21.05.2017 21:00:00 14,6 8,4 - - 0,0
21.05.2017 20:00:00 15,8 10,2 - - 0,0
21.05.2017 19:00:00 16,3 10,4 - - 0,0
21.05.2017 18:00:00 17,2 10,1 - - 0,0
21.05.2017 17:00:00 15,5 9,9 - - 0,0
21.05.2017 16:00:00 15,4 9,7 - - 0,0
21.05.2017 15:00:00 15,7 10,1 - - 0,0
21.05.2017 14:00:00 15,6 10,2 - - 0,0
21.05.2017 13:00:00 15,5 10,2 - - 0,0
21.05.2017 12:00:00 15,0 10,3 - - 0,0
21.05.2017 11:00:00 13,0 9,9 - - 0,0
21.05.2017 10:00:00 11,8 10,1 12,4 - 0,0
21.05.2017 09:00:00 10,6 9,0 - - 0,2
21.05.2017 08:00:00 11,8 8,6 - - 0,0
21.05.2017 07:00:00 10,5 7,6 - - 0,0
21.05.2017 06:00:00 9,9 7,4 - - 0,0
21.05.2017 05:00:00 10,0 7,4 - - 0,2
21.05.2017 04:00:00 10,6 7,7 - - 0,0
21.05.2017 03:00:00 10,8 8,0 - - 0,0
21.05.2017 02:00:00 11,4 9,0 - - 0,0
21.05.2017 01:00:00 11,3 9,0 - - 0,0
21.05.2017 00:00:00 11,3 8,8 - - 0,0
20.05.2017 23:00:00 11,2 8,7 - - 0,0
20.05.2017 22:00:00 9,9 7,6 - - 0,0
20.05.2017 21:00:00 11,1 7,1 - - 0,0
20.05.2017 20:00:00 11,6 8,3 - - 0,0
20.05.2017 19:00:00 13,1 8,2 - - 0,0
20.05.2017 18:00:00 13,5 7,8 - - 0,0
20.05.2017 17:00:00 13,4 10,2 - - 0,0
20.05.2017 16:00:00 12,9 9,0 - - 0,0
20.05.2017 15:00:00 11,3 8,2 - - 0,2
20.05.2017 14:00:00 11,2 8,8 - - 0,0
20.05.2017 13:00:00 12,8 8,8 - - 0,0
20.05.2017 12:00:00 13,4 9,7 - - 0,0
20.05.2017 11:00:00 12,9 9,3 - - 0,0
20.05.2017 10:00:00 12,1 9,5 12,6 - 0,0
20.05.2017 09:00:00 10,8 9,5 - - 0,0
20.05.2017 08:00:00 10,0 9,4 - - 0,2
20.05.2017 07:00:00 8,5 8,1 - - 0,0
20.05.2017 06:00:00 7,1 6,7 - - 0,0
20.05.2017 05:00:00 6,5 5,6 - - 0,0
20.05.2017 04:00:00 7,9 7,0 - - 0,0
20.05.2017 03:00:00 8,3 7,3 - - 0,0
20.05.2017 02:00:00 8,9 7,5 - - 0,0
20.05.2017 01:00:00 8,7 7,3 - - 0,0
20.05.2017 00:00:00 8,9 7,8 - - 0,0
19.05.2017 23:00:00 9,6 8,1 - - 0,0
19.05.2017 22:00:00 10,1 7,9 - - 0,0
19.05.2017 21:00:00 11,2 8,0 - - 0,0
19.05.2017 20:00:00 12,1 8,3 - - 0,0
19.05.2017 19:00:00 12,7 9,4 - - 0,0
19.05.2017 18:00:00 13,0 8,2 - - 0,0
19.05.2017 17:00:00 13,6 8,4 - - 0,0
19.05.2017 16:00:00 13,3 8,2 - - 0,0
19.05.2017 15:00:00 13,9 8,4 - - -
19.05.2017 14:00:00 15,0 10,0 - - 0,0
19.05.2017 13:00:00 13,6 6,5 - - 0,0
19.05.2017 12:00:00 13,2 7,5 - - 0,0
19.05.2017 11:00:00 12,8 7,4 - - 0,0
19.05.2017 10:00:00 11,6 7,7 11,6 - 0,0
19.05.2017 09:00:00 10,2 7,3 - - 0,0
19.05.2017 08:00:00 7,7 6,5 - - 0,0
19.05.2017 07:00:00 6,3 5,9 - - 0,0
19.05.2017 06:00:00 5,2 4,7 - - 0,0
19.05.2017 05:00:00 5,2 4,6 - - 0,0
19.05.2017 04:00:00 5,3 4,5 - - 0,0
19.05.2017 03:00:00 6,2 5,2 - - 0,0
19.05.2017 02:00:00 6,8 5,7 - - 0,0
19.05.2017 01:00:00 7,6 6,2 - - 0,0
19.05.2017 00:00:00 7,9 5,9 - - 0,0
18.05.2017 23:00:00 8,7 5,9 - - 0,0
18.05.2017 22:00:00 9,6 5,7 - - 0,0
18.05.2017 21:00:00 10,6 6,8 - - 0,0
18.05.2017 20:00:00 11,6 7,6 - - 0,0

tt = temperature
td = dewpoint
tt 5cm = temperature 5cm
vv = visibility
rr = precipitation

Next stations